CW3325 Weather Reports


Display with metric or nautical units.
time (UTC)temp
F
wind
direction
speed
MPH
gust
MPH
rain 1hr
in
rain 24hr
in
rain mn
in
humidity
%
barometer
mb
20210918203038 74 81 0.0 0.0 0.00 0.00 0.34 97 1014.5
20210918202541 74 81 0.0 0.0 0.00 0.00 0.34 97 1014.9
20210918202109 74 81 0.0 0.0 0.00 0.00 0.34 97 1014.9
20210918202003 74 81 0.0 0.0 0.00 0.00 0.34 97 1014.9
20210918201542 74 81 0.0 0.0 0.00 0.00 0.34 97 1014.9
20210918201044 73 81 0.0 0.0 0.00 0.00 0.34 97 1015.1
20210918200549 73 81 0.0 0.0 0.00 0.00 0.34 96 1015.1
20210918200014 73 81 0.0 0.0 0.00 0.00 0.34 96 1015.1
20210918195542 73 81 0.0 0.0 0.00 0.00 0.34 96 1015.1
20210918195048 73 81 0.0 0.0 0.00 0.00 0.34 96 1015.1
20210918194631 74 188 1.0 0.0 0.00 0.00 0.34 96 1015.1
20210918194014 74 188 1.0 0.0 0.00 0.00 0.34 96 1015.5
20210918193534 74 188 0.0 0.0 0.00 0.00 0.33 96 1015.5
20210918193059 74 188 0.0 0.0 0.00 0.00 0.33 96 1015.5
20210918192557 74 188 0.0 0.0 0.00 0.00 0.33 96 1015.6
20210918192506 74 188 0.0 0.0 0.00 0.00 0.33 96 1015.6
20210918192051 74 188 0.0 0.0 0.00 0.00 0.32 96 1015.6
20210918191604 74 188 0.0 0.0 0.00 0.00 0.32 96 1015.6
20210918191057 74 188 0.0 0.0 0.00 0.00 0.31 96 1016.0
20210918191001 74 188 0.0 0.0 0.00 0.00 0.30 96 1016.0
20210918190538 74 188 0.0 0.0 0.00 0.00 0.28 96 1016.0
20210918190118 74 188 0.0 0.0 0.00 0.00 0.28 96 1016.0
20210918185507 74 172 0.0 0.0 0.00 0.00 0.28 96 1016.0
20210918185027 74 171 0.0 0.0 0.00 0.00 0.27 96 1016.0
20210918184612 74 171 0.0 0.0 0.00 0.00 0.26 96 1016.0
20210918184006 74 170 0.0 0.0 0.00 0.00 0.26 96 1016.0
20210918183523 74 134 0.0 0.0 0.00 0.00 0.25 96 1016.0
20210918183043 74 134 0.0 0.0 0.00 0.00 0.25 95 1016.0
20210918182557 74 134 0.0 0.0 0.00 0.00 0.24 95 1016.0
20210918182033 74 134 0.0 0.0 0.00 0.00 0.23 95 1016.0
20210918181557 74 131 0.0 0.0 0.00 0.00 0.22 95 1016.0
20210918181050 74 131 0.0 0.0 0.00 0.00 0.20 95 1016.1
20210918180503 74 131 0.0 0.0 0.00 0.00 0.19 95 1016.1
20210918180033 75 131 0.0 0.0 0.00 0.00 0.18 94 1016.1
20210918175536 75 131 1.0 0.0 0.00 0.00 0.18 94 1016.5
20210918175100 75 75 1.0 0.0 0.00 0.00 0.17 94 1016.5
20210918174505 75 75 0.0 0.0 0.00 0.00 0.17 94 1016.5
20210918174035 75 75 0.0 0.0 0.00 0.00 0.17 94 1016.4
20210918173542 76 74 0.0 0.0 0.00 0.00 0.16 93 1016.4
20210918173149 76 74 0.0 0.0 0.00 0.00 0.16 93 1016.4
20210918172507 76 74 0.0 0.0 0.00 0.00 0.16 93 1016.5
20210918172020 76 74 1.0 0.0 0.00 0.00 0.16 93 1016.5
20210918171607 77 138 1.0 0.0 0.00 0.00 0.16 93 1016.5
20210918171051 77 141 0.0 0.0 0.00 0.00 0.16 92 1016.5
20210918170508 77 141 1.0 0.0 0.00 0.00 0.16 93 1016.5
20210918170024 77 139 1.0 0.0 0.00 0.00 0.16 92 1016.5
20210918165541 78 138 1.0 0.0 0.00 0.00 0.16 93 1016.4
20210918165015 77 138 1.0 0.0 0.00 0.00 0.16 92 1016.4
20210918164617 77 138 1.0 0.0 0.00 0.00 0.16 93 1016.4
20210918164048 77 185 1.0 0.0 0.00 0.00 0.16 95 1016.4
20210918163523 77 186 1.0 0.0 0.00 0.00 0.16 94 1016.4
20210918163059 77 217 1.0 0.0 0.00 0.00 0.16 94 1016.4
20210918162559 77 179 1.0 0.0 0.00 0.00 0.16 95 1016.3
20210918162501 77 181 1.0 0.0 0.00 0.00 0.16 95 1016.3
20210918162013 76 32 0.0 0.0 0.00 0.00 0.16 95 1016.3
20210918161558 76 32 0.0 0.0 0.00 0.00 0.15 96 1016.3
20210918161045 76 32 0.0 0.0 0.00 0.00 0.15 95 1016.2
20210918160510 76 32 0.0 0.0 0.00 0.00 0.15 96 1016.2
20210918160024 75 32 0.0 0.0 0.00 0.00 0.15 96 1016.2
20210918155539 75 32 0.0 0.0 0.00 0.00 0.15 96 1016.5
20210918155055 75 32 1.0 0.0 0.00 0.00 0.15 96 1016.5
20210918154515 75 32 1.0 0.0 0.00 0.00 0.15 96 1016.5
20210918154030 75 90 0.0 0.0 0.00 0.00 0.15 96 1016.7
20210918153543 75 90 1.0 0.0 0.00 0.00 0.15 97 1016.7
20210918153216 75 90 1.0 0.0 0.00 0.00 0.15 97 1016.7
20210918152533 75 102 1.0 0.0 0.00 0.00 0.15 97 1017.0
20210918152023 75 150 1.0 0.0 0.00 0.00 0.15 98 1017.0
20210918151559 75 94 1.0 0.0 0.00 0.00 0.15 98 1017.0
20210918151110 74 94 1.0 0.0 0.00 0.00 0.15 98 1017.0
20210918150513 74 94 0.0 0.0 0.00 0.00 0.15 98 1017.0
20210918150124 75 94 0.0 0.0 0.00 0.00 0.15 98 1017.0
20210918145541 74 94 0.0 0.0 0.00 0.00 0.15 98 1016.9
20210918145057 74 94 0.0 0.0 0.00 0.00 0.15 98 1016.9
20210918144509 74 94 0.0 0.0 0.00 0.00 0.15 98 1016.9
20210918144027 74 94 0.0 0.0 0.00 0.00 0.15 98 1017.0
20210918143546 74 94 0.0 0.0 0.00 0.00 0.15 98 1017.0
20210918143126 74 94 0.0 0.0 0.00 0.00 0.15 98 1017.0
20210918142511 74 94 0.0 0.0 0.00 0.00 0.15 97 1016.7
20210918142054 74 94 0.0 0.0 0.00 0.00 0.15 98 1016.7
20210918141548 74 94 0.0 0.0 0.00 0.00 0.15 98 1016.7
20210918141046 74 94 0.0 0.0 0.00 0.00 0.15 98 1016.5
20210918140505 74 1 1.0 0.0 0.00 0.00 0.15 98 1016.5
20210918140105 74 1 1.0 0.0 0.00 0.00 0.15 98 1016.5
20210918135539 74 1 1.0 0.0 0.00 0.00 0.15 98 1016.2
20210918135054 74 323 1.0 0.0 0.00 0.00 0.15 98 1016.2
20210918134522 74 307 0.0 0.0 0.00 0.00 0.15 98 1016.2
20210918134040 74 307 0.0 0.0 0.00 0.00 0.15 98 1016.6
20210918133601 74 307 0.0 0.0 0.00 0.00 0.15 98 1016.6
20210918133509 74 307 0.0 0.0 0.00 0.00 0.15 98 1016.6
20210918133144 74 307 0.0 0.0 0.00 0.00 0.15 98 1016.6
20210918132559 74 307 0.0 0.0 0.00 0.00 0.15 98 1016.5
20210918132010 74 307 0.0 0.0 0.00 0.00 0.15 98 1016.5
20210918131543 74 307 0.0 0.0 0.00 0.00 0.15 98 1016.5
20210918131049 74 307 0.0 0.0 0.00 0.00 0.15 98 1016.1
20210918130510 74 307 0.0 0.0 0.00 0.00 0.15 98 1016.1
20210918130051 74 307 0.0 0.0 0.00 0.00 0.15 98 1016.1
20210918125545 73 306 0.0 0.0 0.00 0.00 0.15 98 1016.1
20210918125057 73 306 0.0 0.0 0.00 0.00 0.15 98 1016.1
20210918125001 73 307 0.0 0.0 0.00 0.00 0.15 98 1016.1
20210918124534 73 306 0.0 0.0 0.00 0.00 0.15 98 1016.1
20210918124037 73 306 0.0 0.0 0.00 0.00 0.15 98 1016.1
20210918123549 73 306 0.0 0.0 0.00 0.00 0.15 98 1016.1
20210918123018 73 306 0.0 0.0 0.00 0.00 0.15 98 1016.1
20210918122530 73 306 0.0 0.0 0.00 0.00 0.15 98 1016.0
20210918122050 73 306 0.0 0.0 0.00 0.00 0.15 98 1016.0
20210918121527 73 306 0.0 0.0 0.00 0.00 0.15 98 1016.0
20210918121039 73 306 1.0 0.0 0.00 0.00 0.15 98 1016.0
20210918120558 73 306 1.0 0.0 0.00 0.00 0.15 98 1016.0
20210918120502 73 330 1.0 0.0 0.00 0.00 0.15 98 1016.0
20210918120040 73 238 1.0 0.0 0.00 0.00 0.15 98 1016.0
20210918115536 73 238 1.0 0.0 0.00 0.00 0.15 98 1016.0
20210918115100 73 71 0.0 0.0 0.00 0.00 0.13 98 1016.0
20210918115002 73 71 0.0 0.0 0.00 0.00 0.13 98 1016.0
20210918114526 73 71 0.0 0.0 0.00 0.00 0.12 98 1016.0
20210917225523 76 157 0.0 0.0 0.00 0.00 0.01 96 1014.5
20210917225032 76 157 0.0 0.0 0.00 0.00 0.01 96 1014.5
20210917224638 76 157 0.0 0.0 0.00 0.00 0.01 96 1014.5
20210917224007 76 157 0.0 0.0 0.00 0.00 0.01 96 1014.4
20210917223537 76 157 0.0 0.0 0.00 0.00 0.01 96 1014.4
20210917223123 76 157 0.0 0.0 0.00 0.00 0.01 96 1014.4
20210917222606 76 157 0.0 0.0 0.00 0.00 0.01 96 1014.4
20210917222016 76 157 0.0 0.0 0.00 0.00 0.01 96 1014.4
20210917221632 76 157 0.0 0.0 0.00 0.00 0.01 95 1014.4
20210917221049 76 157 0.0 0.0 0.00 0.00 0.01 95 1014.1
20210917220608 76 157 0.0 0.0 0.00 0.00 0.01 95 1014.1
20210917220504 76 157 0.0 0.0 0.00 0.00 0.01 95 1014.1
20210917220030 76 157 0.0 0.0 0.00 0.00 0.00 95 1014.1
20210917215604 76 157 0.0 0.0 0.00 0.00 0.00 95 1014.4
20210917215012 76 157 0.0 0.0 0.00 0.00 0.00 95 1014.4
20210917214618 76 157 1.0 0.0 0.00 0.00 0.00 95 1014.4
20210917214052 76 157 1.0 0.0 0.00 0.00 0.00 95 1014.4
20210917213518 76 157 0.0 0.0 0.00 0.00 0.00 95 1014.4
20210917213236 76 157 1.0 0.0 0.00 0.00 0.00 94 1014.4
20210917212628 77 157 0.0 0.0 0.00 0.00 0.00 94 1014.4
20210917212505 77 157 0.0 0.0 0.00 0.00 0.00 94 1014.4
20210917212016 77 157 0.0 0.0 0.00 0.00 0.00 94 1014.4
20210917211613 77 157 0.0 0.0 0.00 0.00 0.00 94 1014.4
20210917211106 77 86 0.0 0.0 0.00 0.00 0.00 94 1014.2
20210917210509 77 86 0.0 0.0 0.00 0.00 0.00 94 1014.2
20210917210047 77 86 1.0 0.0 0.00 0.00 0.00 93 1014.2
20210917205536 78 86 0.0 0.0 0.00 0.00 0.00 93 1014.0
20210917205053 78 86 0.0 0.0 0.00 0.00 0.00 93 1014.0
20210917204515 78 86 0.0 0.0 0.00 0.00 0.00 93 1014.0
20210917204054 78 86 0.0 0.0 0.00 0.00 0.00 93 1013.8
20210917203555 78 86 0.0 0.0 0.00 0.00 0.00 92 1013.8